Total_Precipitation_Accumulation
0.27 0.28 0.34 0.36 0.42 0.51 0.56 0.64 0.70 0.84 0.99 1.11 1.26 1.19 1.12 1.15 1.16 1.12 1.11 1.09 1.17 1.23 1.22 1.10 1.08 1.09 1.05 0.98 0.91 0.87 0.84 0.77 0.70 0.74 0.79 0.74 0.61 0.53 0.48 0.45 0.43 0.39 0.35
0.26 0.28 0.34 0.37 0.42 0.52 0.56 0.64 0.73 0.83 0.92 1.02 1.13 1.21 1.16 1.16 1.22 1.18 1.15 1.12 1.11 1.16 1.25 1.24 1.08 0.99 0.98 0.97 0.92 0.90 0.89 0.88 0.80 0.77 0.83 0.85 0.83 0.66 0.48 0.44 0.44 0.43 0.42
0.26 0.30 0.35 0.39 0.43 0.52 0.57 0.62 0.73 0.83 0.90 1.06 1.18 1.28 1.42 1.40 1.40 1.38 1.26 1.16 1.12 1.10 1.12 1.22 1.21 1.07 0.95 0.93 0.89 0.86 0.84 0.85 0.80 0.71 0.83 0.91 0.79 0.64 0.53 0.45 0.39 0.39 0.41
0.25 0.30 0.34 0.39 0.42 0.47 0.59 0.66 0.77 0.85 0.90 1.09 1.24 1.20 1.31 1.34 1.25 1.18 1.22 1.19 1.14 1.11 1.08 1.09 1.16 1.18 1.06 0.90 0.84 0.83 0.84 0.87 0.87 0.76 0.67 0.69 0.68 0.72 0.62 0.51 0.46 0.42 0.41
0.20 0.24 0.28 0.31 0.36 0.41 0.54 0.66 0.79 0.89 0.93 1.02 1.21 1.25 1.18 1.17 1.20 1.22 1.21 1.24 1.23 1.17 1.09 1.07 1.08 1.09 1.06 0.94 0.84 0.83 0.85 0.87 0.87 0.83 0.72 0.65 0.56 0.57 0.67 0.57 0.49 0.52 0.49
0.19 0.21 0.22 0.25 0.34 0.41 0.50 0.62 0.75 0.87 0.94 0.96 1.09 1.24 1.19 1.15 1.15 1.22 1.26 1.25 1.28 1.25 1.14 1.04 1.03 0.99 0.96 0.92 0.84 0.76 0.75 0.77 0.78 0.75 0.74 0.74 0.71 0.61 0.62 0.60 0.47 0.46 0.48
0.19 0.21 0.21 0.24 0.29 0.36 0.46 0.56 0.69 0.79 0.86 0.91 0.99 1.06 1.17 1.13 1.05 1.03 1.11 1.20 1.27 1.23 1.15 1.07 1.01 0.96 0.91 0.88 0.85 0.80 0.72 0.69 0.73 0.72 0.68 0.66 0.63 0.58 0.63 0.72 0.63 0.54 0.49
0.15 0.17 0.20 0.24 0.26 0.28 0.33 0.46 0.57 0.73 0.87 0.92 0.94 0.98 1.06 1.16 1.08 1.00 0.99 1.06 1.14 1.10 1.04 1.05 1.00 0.93 0.91 0.91 0.89 0.86 0.78 0.72 0.71 0.69 0.67 0.67 0.62 0.63 0.70 0.80 0.88 0.82 0.60
0.15 0.16 0.18 0.22 0.24 0.29 0.29 0.38 0.47 0.63 0.84 0.98 0.98 0.97 1.01 1.08 1.08 1.00 0.97 1.00 1.02 1.05 1.05 1.06 1.07 1.00 0.99 1.00 0.97 0.93 0.85 0.79 0.75 0.73 0.72 0.73 0.69 0.68 0.69 0.75 0.88 1.10 0.98
0.17 0.17 0.17 0.20 0.22 0.26 0.30 0.34 0.43 0.51 0.65 0.87 1.03 1.02 0.99 0.98 1.03 1.06 1.02 0.99 0.99 1.01 1.03 1.09 1.13 1.09 1.03 1.07 1.08 1.00 0.91 0.88 0.83 0.81 0.82 0.77 0.73 0.75 0.78 0.83 0.83 0.90 1.03
0.17 0.17 0.17 0.20 0.23 0.26 0.32 0.37 0.43 0.49 0.56 0.68 0.86 0.98 0.99 1.01 1.05 1.08 1.03 1.04 1.02 1.01 0.98 1.00 1.09 1.16 1.11 1.04 1.10 1.08 1.01 0.97 0.89 0.85 0.86 0.82 0.78 0.86 0.89 0.94 0.93 0.88 0.92
0.15 0.16 0.16 0.21 0.25 0.30 0.34 0.40 0.46 0.48 0.52 0.60 0.72 0.85 0.95 1.00 1.05 1.03 1.05 1.11 1.11 1.05 0.96 0.93 1.01 1.11 1.12 1.06 1.07 1.07 1.02 1.01 0.98 0.91 0.91 0.89 0.86 0.89 0.92 1.00 1.00 0.92 0.86
0.13 0.15 0.18 0.22 0.27 0.32 0.35 0.41 0.47 0.46 0.48 0.59 0.69 0.80 0.92 0.95 0.98 0.94 0.97 1.13 1.24 1.21 1.06 0.98 1.00 1.09 1.15 1.10 1.03 1.07 1.06 0.98 0.92 0.90 0.93 0.95 0.95 0.90 0.90 1.00 1.05 0.99 0.94
0.14 0.16 0.20 0.23 0.25 0.29 0.34 0.38 0.45 0.49 0.51 0.55 0.66 0.75 0.85 0.88 0.87 0.87 0.86 0.99 1.16 1.26 1.19 1.06 1.01 1.07 1.19 1.22 1.20 1.21 1.16 1.07 0.93 0.82 0.82 0.91 1.04 1.04 1.05 1.10 1.08 1.11 1.15
0.15 0.17 0.19 0.22 0.27 0.31 0.34 0.37 0.42 0.50 0.56 0.54 0.62 0.66 0.74 0.83 0.84 0.81 0.84 0.92 1.05 1.13 1.16 1.15 1.07 1.07 1.27 1.50 1.66 1.55 1.28 1.10 1.00 0.83 0.75 0.84 1.08 1.26 1.43 1.48 1.37 1.37 1.50
0.15 0.17 0.18 0.20 0.27 0.32 0.36 0.41 0.44 0.48 0.55 0.55 0.59 0.62 0.70 0.82 0.86 0.80 0.83 0.93 1.03 1.08 1.10 1.11 1.10 1.07 1.24 1.60 1.82 1.50 1.16 1.03 0.97 0.91 0.80 0.84 1.07 1.22 1.34 1.48 1.46 1.50 1.68
0.16 0.16 0.21 0.24 0.27 0.32 0.33 0.41 0.45 0.49 0.54 0.55 0.56 0.62 0.71 0.76 0.84 0.84 0.86 0.96 1.05 1.07 1.06 1.04 1.04 1.01 1.06 1.39 1.62 1.38 1.08 0.97 0.92 0.89 0.85 0.87 0.97 1.09 1.11 1.21 1.24 1.27 1.45
0.22 0.20 0.23 0.26 0.26 0.29 0.29 0.34 0.40 0.52 0.59 0.58 0.56 0.61 0.69 0.72 0.81 0.86 0.88 0.99 1.08 1.05 1.04 1.03 1.00 0.97 1.00 1.27 1.52 1.34 1.07 0.98 0.93 0.93 0.87 0.81 0.86 0.98 1.13 1.21 1.16 1.09 1.16
0.26 0.25 0.24 0.25 0.24 0.27 0.28 0.28 0.33 0.46 0.57 0.61 0.55 0.58 0.67 0.72 0.79 0.84 0.91 0.99 1.08 1.04 1.02 0.99 1.00 0.95 0.94 1.19 1.54 1.42 1.10 1.02 0.96 0.96 0.90 0.81 0.77 0.96 1.13 1.10 1.07 1.00 1.04
0.23 0.25 0.24 0.22 0.24 0.27 0.29 0.27 0.30 0.39 0.50 0.58 0.51 0.54 0.61 0.65 0.73 0.80 0.89 0.97 0.98 0.97 0.99 0.94 0.94 0.92 0.87 1.04 1.44 1.55 1.15 1.05 0.98 0.97 0.93 1.00 0.98 1.07 1.09 1.00 1.06 1.16 1.04
0.23 0.22 0.23 0.25 0.27 0.28 0.28 0.28 0.31 0.35 0.44 0.56 0.52 0.54 0.58 0.61 0.69 0.78 0.82 0.89 0.93 0.92 0.96 0.95 0.93 0.91 0.89 0.93 1.20 1.53 1.26 1.09 0.99 1.00 0.99 0.94 1.09 1.11 1.08 1.05 1.03 1.21 1.13
0.24 0.24 0.24 0.25 0.26 0.27 0.29 0.31 0.34 0.36 0.42 0.52 0.53 0.58 0.63 0.65 0.68 0.74 0.74 0.78 0.87 0.91 0.94 0.97 1.00 0.98 0.93 0.97 1.16 1.35 1.31 1.19 1.00 0.97 0.90 0.89 1.05 1.10 1.13 1.09 1.14 1.19 1.18
0.27 0.26 0.26 0.24 0.24 0.26 0.31 0.35 0.39 0.39 0.44 0.50 0.52 0.59 0.67 0.70 0.71 0.70 0.72 0.77 0.83 0.90 0.94 0.95 0.96 0.99 0.96 1.01 1.20 1.18 1.19 1.19 1.08 1.07 1.11 1.07 1.15 1.19 1.10 1.07 1.11 1.08 1.02
0.30 0.30 0.30 0.28 0.26 0.26 0.30 0.37 0.42 0.41 0.45 0.48 0.50 0.56 0.62 0.69 0.72 0.68 0.67 0.70 0.79 0.90 0.91 0.91 0.88 0.88 0.91 1.05 1.18 1.09 1.06 1.13 1.18 1.21 1.20 1.22 1.23 1.20 1.14 1.07 0.97 0.89 0.91
0.34 0.32 0.32 0.32 0.30 0.29 0.32 0.39 0.42 0.42 0.46 0.45 0.45 0.49 0.53 0.65 0.75 0.75 0.70 0.69 0.70 0.86 0.95 0.90 0.87 0.90 1.01 1.15 1.25 1.16 1.12 1.16 1.23 1.31 1.35 1.30 1.25 1.24 1.13 0.98 0.86 0.82 0.87
0.37 0.35 0.34 0.34 0.34 0.35 0.38 0.42 0.43 0.43 0.44 0.44 0.43 0.45 0.50 0.59 0.69 0.74 0.76 0.84 0.82 0.84 0.84 0.83 0.88 0.87 1.01 1.12 1.12 1.13 1.16 1.23 1.30 1.34 1.33 1.17 1.02 0.98 0.93 0.87 0.81 0.78 0.78